Weather in Serafimovsky

Russia / Republic of Bashkortostan     54°25′21″N   53°47′24″E
temp.,
°C
wind,
m/s
gust,
m/s
humid.,
%
clouds,
%
prec.,
mm/h
press.,
hPa
HPBL,
m
28 february, sun
sun2823:00−3sse3996100 1.8 998283
02:00−4se2296100 0.3 99846
05:00−4nnw1298100 1.0 99948
08:00−8n4696100 0.7 1000189
11:00−10n469597 0.9 1001272
14:00−10nnw5794100 0.1 1003361
17:00−11nnw5793100 0.2 1005418
20:00−14nnw3896100 0.1 1007222
1 march, mon
mon123:00−16nw359896 0.1 1010115
02:00−17nw2498100 0.1 1012123
05:00−18nw3698100 0.1 1014160
08:00−18nw369799 0.1 1015240
11:00−19nw349699 0.1 1018245
14:00−16nw3493100 0.0 1019313
17:00−15nw3593100 0.1 1020363
20:00−20wnw1110090 0.0 102020
2 march, tue
tue223:00−21sw2210081 0.0 102020
02:00−22sw239723 0.0 101937
05:00−22ssw379623 0.0 1017146
08:00−19ssw5129699 0.0 1014293
11:00−15ssw71493100 0.3 1011391
14:00−11ssw81492100 0.7 1007516
17:00−8ssw71493100 1.5 1005607
20:00−6ssw71692100 0.8 1002557
3 march, wed
wed323:00−4ssw61391100 1.1 1001428
02:00−3sw499596 0.1 1000335
05:00−5sw489595 0.1 1000217
08:00−4wsw489695 0.3 1001352
11:00−4wsw369597 0.7 1002338
14:00−3w359496 0.3 1003446
17:00−3wnw569198 0.6 1003657
20:00−6wnw4893100 0.2 1004413
4 march, thu
thu423:00−8wnw3896100 0.4 1006304
02:00−13w239483 0.0 100620
05:00−14wsw239765 0.1 100729
08:00−14sw339684 0.1 100836
11:00−9sw599385 0.1 1008347
14:00−6sw61191100 0.1 1006586
17:00−6sw71490100 0.1 1004698
20:00−6sw81690100 0.1 1001774